        Date        , GPU Core Clock [MHz] , GPU Memory Clock [MHz] , GPU Temperature [�C] , Fan Speed [%] , GPU Load [%] , Fan Speed [RPM] , GPU Temp.(DISPIO) [�C] , GPU Temp.(MEMIO) [�C] , GPU Temp.(SHADERCORE) [�C] ,
2009-08-30 10:25:36 ,              625.0   ,                900.0   ,               49.0   ,           0   ,          2   ,             1   ,                 49.5   ,                54.5   ,                     50.0   ,
2009-08-30 10:25:37 ,              625.0   ,                900.0   ,               49.0   ,           0   ,          0   ,             1   ,                 49.5   ,                54.5   ,                     50.5   ,
2009-08-30 10:25:38 ,              625.0   ,                900.0   ,               49.0   ,           0   ,          3   ,             1   ,                 49.0   ,                54.5   ,                     50.0   ,
2009-08-30 10:25:39 ,              625.0   ,                900.0   ,               49.0   ,           0   ,          3   ,             1   ,                 49.0   ,                54.0   ,                     50.0   ,
2009-08-30 10:25:40 ,              625.0   ,                900.0   ,               49.0   ,           0   ,          2   ,             1   ,                 49.5   ,                54.0   ,                     50.0   ,
2009-08-30 10:25:41 ,              625.0   ,                900.0   ,               49.0   ,           0   ,          2   ,             1   ,                 49.5   ,                54.0   ,                     50.0   ,
2009-08-30 10:25:42 ,              625.0   ,                900.0   ,               49.0   ,           0   ,          2   ,             1   ,                 49.5   ,                54.0   ,                     50.0   ,
2009-08-30 10:25:43 ,              625.0   ,                900.0   ,               49.0   ,           0   ,          3   ,             1   ,                 48.5   ,                54.0   ,                     49.5   ,
2009-08-30 10:25:44 ,              625.0   ,                900.0   ,               49.0   ,           0   ,          2   ,             1   ,                 49.0   ,                54.0   ,                     49.5   ,
2009-08-30 10:25:45 ,              625.0   ,                900.0   ,               48.0   ,           0   ,          3   ,             1   ,                 48.5   ,                54.0   ,                     50.0   ,
2009-08-30 10:25:46 ,              625.0   ,                900.0   ,               49.0   ,           0   ,          3   ,             1   ,                 48.5   ,                54.0   ,                     50.0   ,
2009-08-30 10:25:47 ,              625.0   ,                900.0   ,               49.0   ,           0   ,          3   ,             1   ,                 48.0   ,                54.0   ,                     49.5   ,
2009-08-30 10:25:48 ,              625.0   ,                900.0   ,               49.0   ,           0   ,          3   ,             1   ,                 48.5   ,                54.0   ,                     49.5   ,
2009-08-30 10:25:49 ,              625.0   ,                900.0   ,               49.0   ,           0   ,          2   ,             1   ,                 48.5   ,                54.0   ,                     50.0   ,
2009-08-30 10:25:50 ,              625.0   ,                900.0   ,               48.0   ,           0   ,          3   ,             1   ,                 49.0   ,                54.0   ,                     49.5   ,
2009-08-30 10:25:51 ,              625.0   ,                900.0   ,               48.0   ,           0   ,          0   ,             1   ,                 48.5   ,                54.0   ,                     49.5   ,
2009-08-30 10:25:52 ,              625.0   ,                900.0   ,               48.0   ,           0   ,          1   ,             1   ,                 48.5   ,                54.0   ,                     49.0   ,
2009-08-30 10:25:53 ,              625.0   ,                900.0   ,               48.0   ,           0   ,          0   ,             1   ,                 48.0   ,                53.5   ,                     49.5   ,
2009-08-30 10:25:54 ,              625.0   ,                900.0   ,               48.0   ,           0   ,          0   ,             1   ,                 48.0   ,                54.0   ,                     49.0   ,
2009-08-30 10:25:55 ,              625.0   ,                900.0   ,               48.0   ,           0   ,          0   ,             1   ,                 48.5   ,                53.5   ,                     48.5   ,
2009-08-30 10:25:56 ,              625.0   ,                900.0   ,               48.0   ,           0   ,          0   ,             1   ,                 48.5   ,                54.0   ,                     49.0   ,
2009-08-30 10:25:57 ,              625.0   ,                900.0   ,               48.0   ,           0   ,          0   ,             1   ,                 48.0   ,                53.5   ,                     49.0   ,
2009-08-30 10:25:58 ,              625.0   ,                900.0   ,               48.0   ,           0   ,          0   ,             1   ,                 48.5   ,                54.0   ,                     49.0   ,
2009-08-30 10:25:59 ,              625.0   ,                900.0   ,               48.0   ,           0   ,          0   ,             1   ,                 48.5   ,                53.5   ,                     49.0   ,
2009-08-30 10:26:01 ,              625.0   ,                900.0   ,               48.0   ,           0   ,          0   ,             1   ,                 48.5   ,                53.0   ,                     49.0   ,
2009-08-30 10:26:02 ,              625.0   ,                900.0   ,               48.0   ,           0   ,          0   ,             1   ,                 48.5   ,                53.5   ,                     49.0   ,
2009-08-30 10:26:03 ,              625.0   ,                900.0   ,               48.0   ,           0   ,          0   ,             1   ,                 48.5   ,                53.5   ,                     49.0   ,
2009-08-30 10:26:04 ,              625.0   ,                900.0   ,               48.0   ,           0   ,          0   ,             1   ,                 48.5   ,                53.5   ,                     49.0   ,
2009-08-30 10:26:05 ,              625.0   ,                900.0   ,               48.0   ,           0   ,          0   ,             1   ,                 48.0   ,                52.5   ,                     49.0   ,
2009-08-30 10:26:06 ,              625.0   ,                900.0   ,               48.0   ,           0   ,          0   ,             1   ,                 48.0   ,                53.5   ,                     48.5   ,
2009-08-30 10:26:07 ,              625.0   ,                900.0   ,               48.0   ,           0   ,          0   ,             1   ,                 48.0   ,                53.0   ,                     49.0   ,
2009-08-30 10:26:08 ,              625.0   ,                900.0   ,               48.0   ,           0   ,          0   ,             1   ,                 48.0   ,                53.0   ,                     49.0   ,
2009-08-30 10:26:09 ,              625.0   ,                900.0   ,               48.0   ,           0   ,          0   ,             1   ,                 48.0   ,                53.5   ,                     49.0   ,
2009-08-30 10:26:10 ,              625.0   ,                900.0   ,               48.0   ,           0   ,          0   ,             1   ,                 48.5   ,                53.0   ,                     48.5   ,
2009-08-30 10:26:11 ,              625.0   ,                900.0   ,               48.0   ,           0   ,          0   ,             1   ,                 48.5   ,                52.5   ,                     48.5   ,
2009-08-30 10:26:12 ,              625.0   ,                900.0   ,               48.0   ,           0   ,          0   ,             1   ,                 48.0   ,                53.0   ,                     49.0   ,
2009-08-30 10:26:13 ,              625.0   ,                900.0   ,               48.0   ,           0   ,          0   ,             1   ,                 49.0   ,                52.5   ,                     49.0   ,
2009-08-30 10:26:14 ,              625.0   ,                900.0   ,               48.0   ,           0   ,          0   ,             1   ,                 48.0   ,                52.5   ,                     49.0   ,
2009-08-30 10:26:15 ,              625.0   ,                900.0   ,               48.0   ,           0   ,          0   ,             1   ,                 48.0   ,                53.0   ,                     49.0   ,
2009-08-30 10:26:16 ,              625.0   ,                900.0   ,               48.0   ,           0   ,          0   ,             1   ,                 48.5   ,                52.5   ,                     48.5   ,
2009-08-30 10:26:17 ,              625.0   ,                900.0   ,               48.0   ,           0   ,          0   ,             1   ,                 48.0   ,                52.5   ,                     49.0   ,
2009-08-30 10:26:18 ,              625.0   ,                900.0   ,               48.0   ,           0   ,          0   ,             1   ,                 48.0   ,                52.5   ,                     48.5   ,
2009-08-30 10:26:19 ,              625.0   ,                900.0   ,               48.0   ,           0   ,          0   ,             1   ,                 48.0   ,                52.5   ,                     49.0   ,
2009-08-30 10:26:20 ,              625.0   ,                900.0   ,               48.0   ,           0   ,          2   ,             1   ,                 48.0   ,                53.0   ,                     49.0   ,
2009-08-30 10:26:21 ,              625.0   ,                900.0   ,               48.0   ,           0   ,          0   ,             1   ,                 48.0   ,                52.5   ,                     48.5   ,
2009-08-30 10:26:22 ,              625.0   ,                900.0   ,               48.0   ,           0   ,          3   ,             1   ,                 48.0   ,                52.5   ,                     48.5   ,
2009-08-30 10:26:23 ,              625.0   ,                900.0   ,               48.0   ,           0   ,          3   ,             1   ,                 48.0   ,                52.5   ,                     48.5   ,
2009-08-30 10:26:24 ,              625.0   ,                900.0   ,               48.0   ,           0   ,          1   ,             1   ,                 48.0   ,                53.0   ,                     49.0   ,
2009-08-30 10:26:25 ,              625.0   ,                900.0   ,               48.0   ,           0   ,          1   ,             1   ,                 47.5   ,                52.0   ,                     48.5   ,
2009-08-30 10:26:26 ,              625.0   ,                900.0   ,               47.0   ,           0   ,          0   ,             1   ,                 48.0   ,                53.0   ,                     49.0   ,
2009-08-30 10:26:27 ,              625.0   ,                900.0   ,               48.0   ,           0   ,          1   ,             1   ,                 48.0   ,                52.5   ,                     48.0   ,
2009-08-30 10:26:28 ,              625.0   ,                900.0   ,               47.0   ,           0   ,          0   ,             1   ,                 47.5   ,                52.0   ,                     48.5   ,
2009-08-30 10:26:29 ,              625.0   ,                900.0   ,               47.0   ,           0   ,          1   ,             1   ,                 48.0   ,                52.5   ,                     48.5   ,
2009-08-30 10:26:30 ,              625.0   ,                900.0   ,               48.0   ,           0   ,          0   ,             1   ,                 47.5   ,                52.0   ,                     48.5   ,
2009-08-30 10:26:31 ,              625.0   ,                900.0   ,               47.0   ,           0   ,          0   ,             1   ,                 47.0   ,                51.5   ,                     48.0   ,
2009-08-30 10:26:32 ,              625.0   ,                900.0   ,               47.0   ,           0   ,          1   ,             1   ,                 47.5   ,                52.5   ,                     48.5   ,
2009-08-30 10:26:33 ,              625.0   ,                900.0   ,               47.0   ,           0   ,          0   ,             1   ,                 47.0   ,                52.5   ,                     48.5   ,
2009-08-30 10:26:34 ,              625.0   ,                900.0   ,               47.0   ,           0   ,          1   ,             1   ,                 47.5   ,                52.0   ,                     48.5   ,
2009-08-30 10:26:35 ,              625.0   ,                900.0   ,               47.0   ,           0   ,          0   ,             1   ,                 48.0   ,                52.5   ,                     48.5   ,
2009-08-30 10:26:36 ,              625.0   ,                900.0   ,               47.0   ,           0   ,          0   ,             1   ,                 47.5   ,                52.5   ,                     48.5   ,
2009-08-30 10:26:37 ,              625.0   ,                900.0   ,               46.0   ,           0   ,          0   ,             1   ,                 47.5   ,                52.5   ,                     48.5   ,
2009-08-30 10:26:38 ,              625.0   ,                900.0   ,               48.0   ,           0   ,          0   ,             1   ,                 47.5   ,                52.5   ,                     48.5   ,
2009-08-30 10:26:39 ,              625.0   ,                900.0   ,               48.0   ,           0   ,          2   ,             1   ,                 47.5   ,                52.0   ,                     48.5   ,
2009-08-30 10:26:40 ,              625.0   ,                900.0   ,               48.0   ,           0   ,          0   ,             1   ,                 48.0   ,                52.5   ,                     48.5   ,
2009-08-30 10:26:41 ,              625.0   ,                900.0   ,               48.0   ,           0   ,          3   ,             1   ,                 47.5   ,                52.0   ,                     48.5   ,
2009-08-30 10:26:42 ,              625.0   ,                900.0   ,               47.0   ,           0   ,          1   ,             1   ,                 47.5   ,                52.0   ,                     48.5   ,
2009-08-30 10:26:43 ,              625.0   ,                900.0   ,               48.0   ,           0   ,          0   ,             1   ,                 47.5   ,                52.0   ,                     48.0   ,
2009-08-30 10:26:44 ,              625.0   ,                900.0   ,               47.0   ,           0   ,          2   ,             1   ,                 48.0   ,                52.0   ,                     48.5   ,
2009-08-30 10:26:45 ,              625.0   ,                900.0   ,               47.0   ,           0   ,          0   ,             1   ,                 47.5   ,                52.0   ,                     48.5   ,
2009-08-30 10:26:46 ,              625.0   ,                900.0   ,               47.0   ,           0   ,          0   ,             1   ,                 47.5   ,                52.0   ,                     48.0   ,
2009-08-30 10:26:47 ,              625.0   ,                900.0   ,               48.0   ,           0   ,          1   ,             1   ,                 48.5   ,                52.5   ,                     48.0   ,
2009-08-30 10:26:48 ,              625.0   ,                900.0   ,               48.0   ,           0   ,          1   ,             1   ,                 47.5   ,                52.0   ,                     48.5   ,
2009-08-30 10:26:49 ,              625.0   ,                900.0   ,               47.0   ,           0   ,          0   ,             1   ,                 47.0   ,                52.5   ,                     48.5   ,
2009-08-30 10:26:50 ,              625.0   ,                900.0   ,               47.0   ,           0   ,          0   ,             1   ,                 48.0   ,                52.5   ,                     48.5   ,
2009-08-30 10:26:51 ,              625.0   ,                900.0   ,               48.0   ,           0   ,          0   ,             1   ,                 48.0   ,                56.5   ,                     49.0   ,
2009-08-30 10:26:52 ,              625.0   ,                900.0   ,               50.0   ,           0   ,          0   ,             1   ,                 50.0   ,                57.5   ,                     52.0   ,
2009-08-30 10:26:53 ,              625.0   ,                900.0   ,               48.0   ,           0   ,         40   ,             1   ,                 48.5   ,                53.5   ,                     49.0   ,
2009-08-30 10:26:54 ,              625.0   ,                900.0   ,               48.0   ,           0   ,         32   ,             1   ,                 48.0   ,                53.0   ,                     48.5   ,
2009-08-30 10:26:55 ,              625.0   ,                900.0   ,               48.0   ,           0   ,          0   ,             1   ,                 48.0   ,                52.5   ,                     48.5   ,
2009-08-30 10:26:56 ,              625.0   ,                900.0   ,               48.0   ,           0   ,          0   ,             1   ,                 48.0   ,                52.5   ,                     48.5   ,
2009-08-30 10:26:57 ,              625.0   ,                900.0   ,               47.0   ,           0   ,          2   ,             1   ,                 47.5   ,                52.5   ,                     48.5   ,
2009-08-30 10:26:58 ,              625.0   ,                900.0   ,               48.0   ,           0   ,          0   ,             1   ,                 48.0   ,                52.0   ,                     48.5   ,
2009-08-30 10:26:59 ,              625.0   ,                900.0   ,               48.0   ,           0   ,          0   ,             1   ,                 48.0   ,                52.5   ,                     48.5   ,
2009-08-30 10:27:00 ,              625.0   ,                900.0   ,               48.0   ,           0   ,          0   ,             1   ,                 48.0   ,                52.0   ,                     48.0   ,
2009-08-30 10:27:01 ,              625.0   ,                900.0   ,               48.0   ,           0   ,          0   ,             1   ,                 48.0   ,                52.0   ,                     48.5   ,
2009-08-30 10:27:02 ,              625.0   ,                900.0   ,               51.0   ,           0   ,          0   ,             1   ,                 52.0   ,                61.0   ,                     53.0   ,
2009-08-30 10:27:03 ,              625.0   ,                900.0   ,               49.0   ,           0   ,          0   ,             1   ,                 49.5   ,                55.0   ,                     50.0   ,
2009-08-30 10:27:04 ,              625.0   ,                900.0   ,               52.0   ,           0   ,          0   ,             1   ,                 52.0   ,                59.5   ,                     52.5   ,
2009-08-30 10:27:05 ,              625.0   ,                900.0   ,               54.0   ,           0   ,         62   ,             1   ,                 54.0   ,                62.0   ,                     55.5   ,
2009-08-30 10:27:06 ,              625.0   ,                900.0   ,               54.0   ,           0   ,         82   ,             1   ,                 54.0   ,                62.0   ,                     56.0   ,
2009-08-30 10:27:07 ,              625.0   ,                900.0   ,               55.0   ,           0   ,         99   ,             1   ,                 55.0   ,                62.0   ,                     56.0   ,
2009-08-30 10:27:08 ,              625.0   ,                900.0   ,               55.0   ,           0   ,         99   ,             1   ,                 55.0   ,                63.5   ,                     56.0   ,
2009-08-30 10:27:09 ,              625.0   ,                900.0   ,               55.0   ,           0   ,         99   ,             1   ,                 55.5   ,                63.5   ,                     56.5   ,
2009-08-30 10:27:10 ,              625.0   ,                900.0   ,               56.0   ,           0   ,         99   ,             1   ,                 56.0   ,                64.0   ,                     57.0   ,
2009-08-30 10:27:11 ,              625.0   ,                900.0   ,               56.0   ,           0   ,         99   ,             1   ,                 56.0   ,                64.5   ,                     56.5   ,
2009-08-30 10:27:12 ,              625.0   ,                900.0   ,               56.0   ,           0   ,         99   ,             1   ,                 56.0   ,                64.5   ,                     57.0   ,
2009-08-30 10:27:13 ,              625.0   ,                900.0   ,               56.0   ,           0   ,         99   ,             1   ,                 55.0   ,                64.0   ,                     57.0   ,
2009-08-30 10:27:14 ,              625.0   ,                900.0   ,               56.0   ,           0   ,         99   ,             1   ,                 57.0   ,                64.5   ,                     57.5   ,
2009-08-30 10:27:16 ,              625.0   ,                900.0   ,               56.0   ,           0   ,         99   ,             1   ,                 56.0   ,                64.0   ,                     58.0   ,
2009-08-30 10:27:17 ,              625.0   ,                900.0   ,               56.0   ,           0   ,         99   ,             1   ,                 56.0   ,                65.5   ,                     57.5   ,
2009-08-30 10:27:18 ,              625.0   ,                900.0   ,               57.0   ,           0   ,         99   ,             1   ,                 56.5   ,                64.5   ,                     58.0   ,
2009-08-30 10:27:19 ,              625.0   ,                900.0   ,               57.0   ,           0   ,         99   ,             1   ,                 57.5   ,                64.5   ,                     58.0   ,
2009-08-30 10:27:20 ,              625.0   ,                900.0   ,               57.0   ,           0   ,         99   ,             1   ,                 57.5   ,                65.5   ,                     58.0   ,
2009-08-30 10:27:21 ,              625.0   ,                900.0   ,               57.0   ,           0   ,         99   ,             1   ,                 57.5   ,                65.0   ,                     58.0   ,
2009-08-30 10:27:22 ,              625.0   ,                900.0   ,               57.0   ,           0   ,         99   ,             1   ,                 57.5   ,                65.5   ,                     58.0   ,
2009-08-30 10:27:23 ,              625.0   ,                900.0   ,               58.0   ,           0   ,         99   ,             1   ,                 58.0   ,                66.0   ,                     58.0   ,
2009-08-30 10:27:24 ,              625.0   ,                900.0   ,               57.0   ,           0   ,         99   ,             1   ,                 57.5   ,                65.5   ,                     58.5   ,
2009-08-30 10:27:25 ,              625.0   ,                900.0   ,               58.0   ,           0   ,         99   ,             1   ,                 58.0   ,                66.5   ,                     59.5   ,